Tampa Macdill AFB, FL

7:37 PM EST on November 18, 2019 (GMT -0500)
MacDill Air Force Base

Weather History for KMCF - October, 2019

Change the Weather History Date:

Friday, October 18, 2019

  Actual Average Record
Temperature  
Mean Temperature 73 °F -  
Max Temperature 76 °F 82 °F 92 °F (2013)
Min Temperature 69 °F 65 °F 57 °F (2000)
Cooling Degree Days 8    
Growing Degree Days 23 (Base 50)    
Moisture  
Dew Point 69 °F    
Average Humidity 84    
Maximum Humidity 94    
Minimum Humidity 72    
Precipitation  
Precipitation 0.00 in - - ()
Sea Level Pressure  
Sea Level Pressure 29.89 in    
Wind  
Wind Speed 7 mph (East)    
Max Wind Speed 17 mph    
Max Gust Speed 28 mph    
Visibility 8 miles    
Events Rain    
Averages and records for this station are not official NWS values.
T = Trace of Precipitation, MM = Missing Value Source: NWS Daily Summary

Daily Weather History Graph

Daily Weather History Graph

Search for Another Location

Airport or City:

Astronomy

Oct. 18, 2019 Rise Set
Actual Time 7:31 AM EDT 6:58 PM EDT
Civil Twilight 7:08 AM EDT 7:21 PM EDT
Nautical Twilight 6:40 AM EDT 7:49 PM EDT
Astronomical Twilight 6:13 AM EDT 8:16 PM EDT
Moon 10:33 PM EDT (10/18) 11:45 AM EDT (10/18)
Length of Visible Light 12h 13m
Length of Day
11h 26m
Waning Gibbous, 79% of the Moon is Illuminated
Oct 18
Waning Gibbous
Oct 21
Last Quarter
Oct 27
New
Nov 4
First Quarter
Nov 12
Full

Hourly Weather History & Observations

Time (EDT) Temp. Dew Point Humidity Pressure Visibility Wind Dir Wind Speed Gust Speed Precip Events Conditions
12:13 AM 73.4 °F 66.2 °F 78% 29.95 in 10.0 mi Calm Calm - N/A   Light Drizzle
12:18 AM 71.6 °F 66.2 °F 83% 29.95 in 10.0 mi Calm Calm - N/A   Mostly Cloudy
12:56 AM 72.1 °F 66.9 °F 84% 29.96 in 10.0 mi Calm Calm - 0.00 in   Overcast
1:56 AM 72.5 °F 65.7 °F 79% 29.93 in 10.0 mi ENE 4.6 mph - N/A   Scattered Clouds
2:56 AM 73.0 °F 64.6 °F 75% 29.92 in 10.0 mi Calm Calm - N/A   Mostly Cloudy
3:56 AM 71.1 °F 62.2 °F 74% 29.89 in 10.0 mi ENE 4.6 mph - N/A   Clear
4:56 AM 69.6 °F 60.6 °F 73% 29.89 in 10.0 mi ENE 6.9 mph - N/A   Partly Cloudy
5:56 AM 70.2 °F 61.2 °F 73% 29.90 in 10.0 mi East 6.9 mph - N/A   Mostly Cloudy
6:56 AM 71.6 °F 62.1 °F 72% 29.92 in 10.0 mi East 6.9 mph - N/A   Overcast
7:56 AM 71.8 °F 63.3 °F 75% 29.92 in 10.0 mi East 6.9 mph - N/A   Scattered Clouds
8:56 AM 72.7 °F 64.6 °F 76% 29.94 in 10.0 mi East 9.2 mph - N/A   Partly Cloudy
9:56 AM 73.0 °F 64.2 °F 74% 29.95 in 10.0 mi East 8.1 mph - N/A   Scattered Clouds
10:22 AM 73.4 °F 66.2 °F 78% 29.96 in 10.0 mi East 8.1 mph - N/A   Light Drizzle
10:35 AM 75.2 °F 66.2 °F 73% 29.95 in 10.0 mi ESE 9.2 mph - N/A   Scattered Clouds
10:43 AM 75.2 °F 66.2 °F 73% 29.95 in 10.0 mi East 9.2 mph - N/A   Light Drizzle
10:52 AM 75.2 °F 66.2 °F 73% 29.95 in 10.0 mi East 9.2 mph - N/A   Mostly Cloudy
10:56 AM 75.0 °F 66.2 °F 74% 29.95 in 10.0 mi East 8.1 mph - 0.00 in   Mostly Cloudy
11:56 AM 75.7 °F 66.0 °F 72% 29.94 in 10.0 mi East 10.4 mph - N/A   Scattered Clouds
12:56 PM 75.6 °F 65.8 °F 72% 29.93 in 10.0 mi East 10.4 mph - N/A   Mostly Cloudy
3:56 PM 74.5 °F 68.9 °F 83% 29.85 in 10.0 mi East 12.7 mph - 0.00 in Rain Light Rain
3:58 PM 75.2 °F 69.8 °F 83% 29.86 in 10.0 mi East 10.4 mph - N/A   Clear
4:56 PM 76.5 °F 68.4 °F 76% 29.86 in 10.0 mi East 11.5 mph - 0.00 in   Scattered Clouds
5:21 PM 77.0 °F 68.0 °F 74% 29.86 in 10.0 mi East 10.4 mph - N/A   Light Drizzle
5:56 PM 75.4 °F 70.2 °F 84% 29.85 in 10.0 mi East 10.4 mph - 0.00 in Rain Light Rain
6:56 PM 74.3 °F 70.9 °F 89% 29.87 in 10.0 mi East 6.9 mph - 0.00 in Rain Light Rain
7:56 PM 74.5 °F 71.6 °F 91% 29.82 in 10.0 mi East 16.1 mph - 0.00 in Rain Light Rain
8:56 PM 75.0 °F 72.1 °F 91% 29.82 in 5.0 mi East 13.8 mph - 0.00 in Rain Heavy Rain
9:02 PM 75.2 °F 71.6 °F 89% 29.84 in 4.0 mi East 11.5 mph - N/A Rain Heavy Rain
9:12 PM 75.2 °F 71.6 °F 89% 29.84 in 1.4 mi East 10.4 mph - N/A Rain Heavy Rain
9:17 PM 75.2 °F 73.4 °F 94% 29.84 in 2.2 mi East 13.8 mph - N/A Rain Heavy Rain
9:22 PM 75.2 °F 73.4 °F 94% 29.85 in 4.0 mi East 11.5 mph - N/A Rain Rain
9:32 PM 75.2 °F 73.4 °F 94% 29.83 in 4.0 mi East 16.1 mph - N/A Rain Rain
9:47 PM 75.2 °F 73.4 °F 94% 29.86 in 1.6 mi SE 17.3 mph 27.6 mph N/A Rain Heavy Rain
9:48 PM 75.2 °F 73.4 °F 94% 29.87 in 1.4 mi SE 16.1 mph 27.6 mph N/A Rain Heavy Rain
9:53 PM 75.2 °F 73.4 °F 94% 29.87 in 2.8 mi SE 13.8 mph - N/A Rain Rain
9:56 PM 75.2 °F 73.0 °F 93% 29.87 in 4.0 mi SSE 13.8 mph - 0.00 in Rain Rain
10:40 PM 75.2 °F 73.4 °F 94% 29.87 in 10.0 mi ESE 9.2 mph - N/A   Mostly Cloudy
10:42 PM 75.2 °F 73.4 °F 94% 29.87 in 10.0 mi ESE 8.1 mph - N/A Rain Light Rain
10:56 PM 75.0 °F 72.9 °F 93% 29.86 in 10.0 mi ESE 10.4 mph - 0.00 in Rain Light Rain
11:18 PM 75.2 °F 73.4 °F 94% 29.87 in 10.0 mi ESE 5.8 mph - N/A   Clear
11:33 PM 75.2 °F 73.4 °F 94% 29.86 in 10.0 mi ESE 6.9 mph - N/A Rain Light Rain
11:44 PM 75.2 °F 73.4 °F 94% 29.85 in 10.0 mi ESE 8.1 mph - N/A Rain Light Rain
11:56 PM 75.6 °F 73.4 °F 93% 29.84 in 10.0 mi ESE 6.9 mph - 0.00 in Rain Light Rain